Location: Pic du Midi - T1M
(42.9366°N, 0.1426°E)
Time: 11:27:58
(UTC+01:00)

DX 1 - Pass Details

Date: 20 September 2021
Orbit: 618 x 630 km, 98.4° (Epoch: 25 October)

Event Time Altitude Azimuth Distance (km) Brightness Sun altitude
Rises 21:05:16 0° 12° (NNE) 2,897 ? -23.0°
Reaches altitude 10° 21:07:28 10° 11° (N) 1,987 ? -23.4°
Maximum altitude 21:11:46 78° 286° (WNW) 635 ? -24.1°
Enters shadow 21:13:11 42° 207° (SSW) 884 ? -24.3°
